Youngstown, OH

2:50 AM EDT on August 20, 2017 (GMT -0400)
Youngstown-Warren Regional

Weather History for KYNG - December, 2015

Change the Weather History Date:

Monday, December 14, 2015

  Actual Average Record
Temperature  
Mean Temperature 54 °F 30 °F  
Max Temperature 62 °F 37 °F 62 °F (1975)
Min Temperature 46 °F 24 °F 3 °F (1951)
Degree Days  
Heating Degree Days 11 35  
Month to date heating degree days 296 450  
Since 1 July heating degree days 1298 1779  
Cooling Degree Days 0 0  
Month to date cooling degree days 0 0  
Year to date cooling degree days 681 544  
Growing Degree Days 4 (Base 50)    
Moisture  
Dew Point 49 °F    
Average Humidity 75    
Maximum Humidity 93    
Minimum Humidity 56    
Precipitation  
Precipitation 0.16 in 0.09 in 1.16 in (1977)
Month to date precipitation 0.43 1.41  
Year to date precipitation 40.62 37.33  
Snow  
Snow 0.00 in 0.50 in - ()
Month to date snowfall 0.7 6.3  
Since 1 July snowfall 1.1 10.7  
Snow Depth 0.00 in    
Sea Level Pressure  
Sea Level Pressure 29.56 in    
Wind  
Wind Speed 12 mph (South)    
Max Wind Speed 26 mph    
Max Gust Speed 40 mph    
Visibility 9 miles    
Events Rain    
T = Trace of Precipitation, MM = Missing Value Source: NWS Daily Summary

Daily Weather History Graph

Daily Weather History Graph

Search for Another Location

Airport or City:

Trip Planner

Search our weather history database for the weather conditions in past years. The results will help you decide how hot, cold, wet, or windy it might be!

Date:

Astronomy

Dec. 14, 2015 Rise Set
Actual Time 7:40 AM EST 4:54 PM EST
Civil Twilight 7:09 AM EST 5:25 PM EST
Nautical Twilight 6:34 AM EST 6:00 PM EST
Astronomical Twilight 6:00 AM EST 6:33 PM EST
Moon 9:58 AM EST (12/14) 8:28 PM EST (12/14)
Length of Visible Light 10h 16m
Length of Day
9h 13m
Waxing Crescent, 12% of the Moon is Illuminated
Dec 14
Waxing Crescent
Dec 18
First Quarter
Dec 25
Full
Jan 2
Last Quarter
Jan 9
New

Hourly Weather History & Observations

Time (EST) Temp. Dew Point Humidity Pressure Visibility Wind Dir Wind Speed Gust Speed Precip Events Conditions
12:51 AM 55.0 °F 52.0 °F 89% 29.83 in 10.0 mi ESE 9.2 mph - N/A   Overcast
1:51 AM 55.9 °F 51.1 °F 84% 29.79 in 10.0 mi ESE 9.2 mph - N/A   Overcast
2:51 AM 57.9 °F 50.0 °F 75% 29.78 in 10.0 mi SSE 8.1 mph - N/A   Overcast
3:51 AM 59.0 °F 48.0 °F 67% 29.76 in 10.0 mi SSE 8.1 mph - N/A   Overcast
4:51 AM 57.9 °F 46.9 °F 67% 29.72 in 10.0 mi SE 8.1 mph - N/A   Overcast
5:51 AM 57.9 °F 46.0 °F 65% 29.73 in 10.0 mi SSE 8.1 mph - N/A   Overcast
6:51 AM 55.0 °F 46.0 °F 72% 29.70 in 10.0 mi SE 10.4 mph - N/A   Mostly Cloudy
7:51 AM 57.0 °F 46.0 °F 67% 29.66 in 10.0 mi SE 12.7 mph - N/A   Mostly Cloudy
8:51 AM 59.0 °F 46.0 °F 62% 29.65 in 10.0 mi SSE 11.5 mph 21.9 mph N/A   Overcast
9:51 AM 60.1 °F 46.9 °F 62% 29.61 in 10.0 mi SSE 15.0 mph 18.4 mph N/A   Overcast
10:51 AM 62.1 °F 46.9 °F 58% 29.57 in 10.0 mi SSE 16.1 mph 25.3 mph N/A   Overcast
11:51 AM 62.1 °F 48.0 °F 60% 29.53 in 10.0 mi SSE 11.5 mph 20.7 mph N/A   Overcast
12:51 PM 59.0 °F 51.1 °F 75% 29.53 in 6.0 mi South 8.1 mph - 0.02 in Rain Light Rain
1:51 PM 59.0 °F 54.0 °F 83% 29.47 in 10.0 mi SE 6.9 mph - 0.00 in Rain Light Rain
2:51 PM 57.0 °F 54.0 °F 89% 29.39 in 7.0 mi ESE 13.8 mph - 0.03 in Rain Light Rain
3:20 PM 57.0 °F 54.0 °F 89% 29.43 in 2.5 mi South 6.9 mph 21.9 mph 0.01 in Rain Light Rain
3:28 PM 57.0 °F 55.0 °F 93% 29.42 in 1.5 mi South 6.9 mph - 0.02 in Rain Rain
3:44 PM 57.0 °F 55.0 °F 93% 29.43 in 2.0 mi South 9.2 mph - 0.04 in Rain Light Rain
3:51 PM 57.9 °F 55.9 °F 93% 29.42 in 3.0 mi South 10.4 mph - 0.05 in Rain Rain
4:18 PM 59.0 °F 55.9 °F 90% 29.42 in 10.0 mi South 13.8 mph 18.4 mph 0.01 in   Overcast
4:51 PM 59.0 °F 53.1 °F 81% 29.39 in 10.0 mi SSW 13.8 mph 23.0 mph 0.01 in   Mostly Cloudy
5:51 PM 57.9 °F 46.0 °F 65% 29.43 in 10.0 mi SW 23.0 mph 33.4 mph 0.00 in   Mostly Cloudy
6:05 PM 57.9 °F 45.0 °F 62% 29.44 in 10.0 mi SW 20.7 mph 39.1 mph N/A   Overcast
6:51 PM 57.0 °F 44.1 °F 62% 29.46 in 10.0 mi SW 27.6 mph 36.8 mph 0.00 in Rain Light Rain
7:51 PM 53.1 °F 46.9 °F 80% 29.47 in 10.0 mi SW 11.5 mph - 0.00 in Rain Light Rain
8:51 PM 52.0 °F 46.0 °F 80% 29.48 in 10.0 mi SW 16.1 mph - 0.01 in Rain Light Rain
9:51 PM 52.0 °F 45.0 °F 77% 29.49 in 10.0 mi WSW 15.0 mph 23.0 mph 0.00 in Rain Light Rain
10:51 PM 51.1 °F 43.0 °F 74% 29.51 in 10.0 mi WSW 17.3 mph - 0.01 in Rain Light Rain
11:29 PM 46.9 °F 41.0 °F 80% 29.54 in 5.0 mi West 19.6 mph 40.3 mph 0.02 in Rain Rain
11:51 PM 46.9 °F 42.1 °F 83% 29.55 in 10.0 mi West 12.7 mph - 0.03 in Rain Light Rain